Location: New Canada
(47.1017°N, 68.5042°W)
Time: 16:45:14
(UTC+00:00)

RS-44 - Pass Details

Date: 21 April 2024
Orbit: 1174 x 1511 km, 82.5° (Epoch: 20 May)

Event Time Altitude Azimuth Distance (km) Brightness Sun altitude
Rises 01:00:58 0° 200° (SSW) 4,638 ? -14.4°
Reaches altitude 10° 01:03:57 10° 204° (SSW) 3,650 ? -14.8°
Maximum altitude 01:12:41 62° 284° (WNW) 1,624 ? -16.0°
Drops below altitude 10° 01:21:03 10° 5° (N) 3,491 ? -17.1°
Sets 01:23:52 0° 9° (N) 4,426 ? -17.5°
